DateTimeUTC,F1_A11,F1_S11,BsB_S11,BsG_S11,BsR_S11,BbsB_S11,BbsG_S11,BbsR_S11,BaB_A11,BaG_A11,BaR_A11,Tu_S11,T_S11,Uu_S11,U_S11,P_S11,T1_A11
2021-08-11T12:00:00Z,00040200,20000000,,,,,,,-000.08,0000.05,0000.47,19.1,25.5,12.6,08.5,0676.5,31.1
2021-08-11T12:01:00Z,00040200,20000000,,,,,,,-000.20,-000.55,-000.05,19.1,25.5,12.4,08.3,0676.5,31.1
2021-08-11T12:02:00Z,00040200,20000000,,,,,,,-000.14,-000.31,-000.33,19.1,25.6,12.3,08.3,0676.5,31.1
2021-08-11T12:03:00Z,00040200,60000000,,,,,,,-000.47,-000.11,-000.65,19.1,25.6,12.3,08.3,0676.5,31.1
2021-08-11T12:04:00Z,00040200,40000000,-000.43,0000.05,0000.40,-000.25,0000.11,0000.36,0000.53,0000.42,0000.81,19.3,25.5,12.1,08.3,0677.4,31.1
2021-08-11T12:05:00Z,00040200,00000000,0000.16,0000.18,-000.07,0000.29,0000.08,-000.06,-000.34,-000.46,-000.56,19.4,25.4,12.2,08.4,0677.4,31.1
2021-08-11T12:06:00Z,00040200,00000000,-000.23,0000.19,0000.10,0000.45,-000.08,0000.29,-000.12,0000.14,-000.02,19.4,25.4,12.1,08.4,0677.4,31.1
2021-08-11T12:07:00Z,00040200,00000000,0000.38,-000.03,0000.01,0000.17,0000.09,0000.05,0000.45,0000.34,0000.34,19.4,25.4,12.1,08.4,0677.4,31.1
2021-08-11T12:08:00Z,00040200,00000000,-000.36,0000.37,0000.22,0000.43,0000.25,0000.18,-000.13,-000.06,-000.18,19.4,25.4,12.3,08.5,0677.4,31.1
2021-08-11T12:09:00Z,00040200,00000000,-000.18,-000.15,0000.14,0000.48,-000.04,-000.05,0000.04,0000.14,0000.37,19.4,25.4,12.4,08.6,0677.4,31.1
2021-08-11T12:10:00Z,00040200,00000000,-000.87,-000.12,0000.21,0000.31,0000.07,0000.26,-000.14,-000.17,-000.05,19.4,25.5,12.2,08.5,0677.4,31.1
2021-08-11T12:11:00Z,00040200,00000000,-000.33,0000.10,0000.20,0000.83,-000.04,0000.21,-000.19,-000.20,-000.28,19.5,25.5,12.2,08.4,0677.4,31.1
2021-08-11T12:12:00Z,00040200,00000000,-000.38,0000.07,0000.39,-000.03,-000.15,0000.03,-000.26,-000.49,0000.01,19.5,25.5,12.1,08.4,0677.4,31.1
2021-08-11T12:13:00Z,00040200,00000000,0000.06,0000.17,0000.26,0000.07,-000.01,0000.16,0000.33,0000.12,-000.05,19.5,25.5,12.1,08.4,0677.4,31.1
2021-08-11T12:14:00Z,00040200,00000000,-000.02,0000.08,0000.23,0000.14,0000.38,-000.01,0000.13,0000.25,-000.05,19.5,25.5,12.1,08.4,0677.4,31.1
2021-08-11T12:15:00Z,00040200,00000000,-000.68,0000.31,0000.46,-000.07,-000.14,-000.17,-000.68,-000.12,-000.17,19.5,25.5,12.0,08.3,0677.4,31.1
2021-08-11T12:16:00Z,00040200,00000000,-000.30,0000.24,0000.39,-000.07,0000.24,0000.04,-000.02,-000.44,-000.20,19.5,25.5,11.8,08.2,0677.4,31.1
2021-08-11T12:17:00Z,00040200,00000000,-000.38,0000.19,0000.16,0000.06,-000.01,0000.17,0000.14,0000.21,0000.21,19.5,25.5,11.8,08.2,0677.4,31.1
2021-08-11T12:18:00Z,00040200,00000000,0000.21,0000.00,0000.05,0000.01,0000.26,0000.00,0000.11,0000.01,-000.20,19.5,25.5,11.8,08.2,0677.4,31.1
2021-08-11T12:19:00Z,00040200,00000000,0000.11,0000.20,0000.04,0000.78,-000.03,0000.04,0000.10,0000.03,0000.18,19.5,25.5,11.9,08.3,0677.4,31.1
2021-08-11T12:20:00Z,00040200,00000000,-000.30,0000.24,-000.08,0000.24,0000.11,0000.22,0000.05,0000.23,0000.09,19.5,25.5,11.9,08.3,0677.5,31.1
2021-08-11T12:21:00Z,00040200,00000000,0000.58,0000.28,-000.00,-000.02,0000.05,-000.02,-000.13,-000.23,0000.15,19.5,25.5,11.9,08.3,0677.5,31.1
2021-08-11T12:22:00Z,00040200,00000000,0000.33,-000.04,0000.05,-000.04,-000.00,0000.04,0000.21,0000.29,-000.04,19.6,25.5,12.0,08.4,0677.4,31.1
2021-08-11T12:23:00Z,00040200,00000000,0000.77,0000.08,0000.32,0000.27,0000.17,0000.27,-000.09,-000.22,0000.20,19.6,25.5,12.2,08.5,0677.4,31.1
2021-08-11T12:24:00Z,00040200,00000000,0000.14,0000.11,-000.18,0000.30,0000.16,-000.09,-000.57,-000.15,-000.24,19.6,25.6,12.1,08.4,0677.4,31.1
2021-08-11T12:25:00Z,00040200,00000000,-000.14,0000.27,0000.05,0000.55,0000.08,0000.22,-000.15,-000.53,-000.41,19.6,25.6,11.7,08.2,0677.4,31.1
2021-08-11T12:26:00Z,00040200,00000000,-000.18,-000.31,0000.24,0000.20,0000.15,0000.05,0000.13,0000.26,0000.11,19.6,25.6,11.8,08.2,0677.5,31.1
2021-08-11T12:27:00Z,00040200,00000000,0000.53,0000.22,0000.07,0000.12,0000.13,0000.05,0000.39,0000.13,-000.04,19.6,25.6,11.8,08.2,0677.5,31.1
2021-08-11T12:28:00Z,00040200,00000000,-000.03,-000.03,0000.05,0000.34,0000.09,-000.03,-000.03,-000.12,0000.48,19.6,25.6,11.8,08.2,0677.5,31.1
2021-08-11T12:29:00Z,00040200,00000000,-000.09,0000.47,0000.19,0001.35,-000.27,0000.02,0000.10,0000.22,-000.05,19.6,25.6,11.8,08.2,0677.5,31.1
2021-08-11T12:30:00Z,00040200,00000000,-000.48,0000.16,0000.35,0000.26,0000.04,0000.19,-000.63,-000.07,-000.01,19.6,25.6,11.8,08.2,0677.4,31.1
2021-08-11T12:31:00Z,00040200,00000000,0000.00,-000.02,0000.06,0000.12,0000.12,-000.02,-000.35,-000.30,-000.66,19.6,25.6,11.7,08.1,0677.4,31.1
2021-08-11T12:32:00Z,00040200,00000000,0000.36,0000.27,-000.21,0000.32,0000.07,-000.07,0000.55,0000.03,0000.34,19.6,25.6,11.6,08.1,0677.4,31.1
2021-08-11T12:33:00Z,00040200,00000000,-000.47,0000.34,-000.10,0000.34,-000.29,0000.13,0000.20,0000.39,0000.41,19.6,25.6,11.7,08.1,0677.4,31.1
2021-08-11T12:34:00Z,00040200,00000000,0000.57,0000.34,0000.22,0000.47,0000.19,0000.35,0000.12,0000.23,-000.22,19.7,25.6,11.7,08.2,0677.4,31.1
2021-08-11T12:35:00Z,00040200,00000000,-000.56,-000.15,0000.21,0000.51,0000.20,0000.03,-000.24,-000.44,-000.14,19.7,25.6,11.8,08.2,0677.4,31.1
2021-08-11T12:36:00Z,00040200,00000000,-000.36,0000.09,-000.03,0000.04,-000.09,-000.18,0000.18,0000.42,0000.63,19.7,25.6,11.8,08.2,0677.4,31.1
2021-08-11T12:37:00Z,00040200,00000000,-000.52,-000.14,0000.31,0000.20,-000.09,0000.22,0000.35,-000.04,-000.05,19.7,25.6,11.9,08.3,0677.4,31.1
2021-08-11T12:38:00Z,00040200,00000000,0000.07,0000.33,0000.41,0000.29,0000.26,-000.02,0000.50,0000.70,0000.42,19.7,25.7,12.0,08.4,0677.4,31.1
2021-08-11T12:39:00Z,00040200,00000000,0000.07,0000.15,0000.06,-000.18,0000.08,-000.01,-000.46,-000.54,-000.60,19.7,25.7,12.1,08.5,0677.4,31.1
2021-08-11T12:40:00Z,00040200,00000000,0000.07,0000.36,-000.04,0000.04,0000.23,-000.07,-000.04,0000.09,0000.09,19.7,25.7,11.8,08.3,0677.4,31.1
2021-08-11T12:41:00Z,00040200,00000000,-000.02,0000.30,0000.24,0000.06,0000.25,-000.11,-000.00,-000.44,0000.09,19.8,25.7,11.9,08.3,0677.3,31.1
2021-08-11T12:42:00Z,00040200,00000000,0000.41,0000.60,0000.10,0000.81,0000.02,-000.07,-000.22,0000.18,0000.04,19.8,25.7,11.9,08.3,0677.4,31.1
2021-08-11T12:43:00Z,00040200,00000000,-000.44,-000.04,-000.02,-000.09,0000.04,-000.37,0000.08,0000.15,-000.03,19.8,25.7,11.9,08.3,0677.4,31.1
2021-08-11T12:44:00Z,00040200,00000000,0000.31,0000.46,0000.12,0000.62,0000.27,-000.11,-000.27,0000.01,-000.01,19.8,25.7,11.9,08.3,0677.4,31.1
2021-08-11T12:45:00Z,00040200,00000000,-000.11,0000.16,0000.17,0000.08,0000.04,0000.23,-000.22,-000.79,-000.47,19.8,25.7,11.8,08.2,0677.4,31.1
2021-08-11T12:46:00Z,00040200,00000000,-000.05,0000.29,0000.14,0000.64,0000.12,-000.09,0000.39,0000.45,-000.00,19.8,25.7,11.7,08.1,0677.4,31.1
2021-08-11T12:47:00Z,00040200,00000000,0000.13,0000.26,0000.17,0000.15,0000.19,0000.06,0000.11,0000.50,0000.76,19.8,25.8,11.7,08.2,0677.4,31.1
2021-08-11T12:48:00Z,00040200,00000000,-000.22,0000.01,0000.22,0000.17,0000.35,0000.06,0000.10,-000.22,-000.41,19.9,25.8,11.7,08.2,0677.4,31.1
2021-08-11T12:49:00Z,00040200,00000000,-000.67,0000.26,0000.34,-000.18,-000.23,-000.02,-000.20,-000.14,0000.11,19.9,25.8,11.7,08.2,0677.4,31.1
2021-08-11T12:50:00Z,00040200,00000000,-000.36,0000.15,0000.39,-000.12,0000.19,0000.05,0000.31,0000.41,0000.22,19.9,25.8,11.7,08.2,0677.4,31.1
2021-08-11T12:51:00Z,00040200,00000000,-000.18,0000.67,0000.19,0000.36,0000.17,0000.17,0000.52,0000.44,0000.41,19.9,25.8,12.0,08.4,0677.4,31.1
2021-08-11T12:52:00Z,00040200,00000000,-000.27,0000.18,0000.35,0000.65,-000.07,-000.03,-000.02,0000.04,0000.39,19.9,25.8,12.0,08.4,0677.4,31.1
2021-08-11T12:53:00Z,00040200,00000000,0000.01,0000.12,0000.08,0000.09,0000.10,-000.08,-001.03,-000.91,-001.16,19.9,25.8,11.9,08.3,0677.3,31.1
2021-08-11T12:54:00Z,00040200,00000000,-000.01,0000.61,0000.25,0000.22,0000.00,0000.10,0000.52,0000.33,0000.37,19.9,25.8,11.8,08.2,0677.3,31.1
2021-08-11T12:55:00Z,00040200,00000000,-000.15,0000.26,0000.05,0000.16,-000.06,0000.12,-000.14,0000.22,0000.21,19.9,25.8,11.8,08.2,0677.3,31.1
2021-08-11T12:56:00Z,00040200,00000000,0000.61,0000.11,-000.11,-000.11,0000.26,0000.06,0000.43,0000.32,0000.00,19.9,25.8,11.9,08.3,0677.3,31.1
2021-08-11T12:57:00Z,00040200,40000000,,,,,,,0000.12,-000.34,0000.10,19.9,25.9,11.7,08.1,0677.3,31.1
2021-08-11T12:58:00Z,00040200,60000000,,,,,,,-000.11,0000.04,-000.15,19.7,26.0,12.2,08.3,0676.3,31.1
2021-08-11T12:59:00Z,00040200,20000000,,,,,,,0000.05,0000.33,0000.17,19.7,26.1,11.9,08.1,0676.3,31.1
